Air Sicilia Virtual Airways - Route

Air Sicilia Virtual Airways - SIC050A

( IT ) LIRA - 00:00
Ciampino Airport
ROMA ( CIA )
plane_to ( IT ) LICR - 00:00
Reggio Calabria Airport
REGGIO CALABRIA ( REG )

AIRPORT NEAR NAVIGATION AIDS

Type Name Frequency
NDB Ciampino 412 KHZ
VOR-DME Roma 110800 KHZ

METAR / TAF
LIRA 211720Z 02006KT 9999 SCT070 24/19 Q1014
LIRA 211100Z 2112/2212 24010KT 9999 SCT030 TEMPO 2114/2117 4000 TSRA BECMG 2118/2120 VRB04KT

RUNWAY INFORMATION

Runway Runway length Runway width Runway elevation Runway displaced threshold Runway heading
15 7242 154 341 0 152.7
33 7242 154 427 0 332.7

AIRPORT FREQUENCIES

Type Name Frequency
ARR ROMA ARR 119.2 MHZ
CLD CLNC DEL 119.4 MHZ
DIR ROMA DIREC 119.2 MHZ
GND GND 121.75 MHZ
TWR TWR 120.5 MHZ

AIRPORT NEAR NAVIGATION AIDS

Type Name Frequency
VOR-DME Reggio Calabria 111000 KHZ
NDB Reggio Calabria 325 KHZ

METAR / TAF
LICR 211650Z 25009KT 9999 SCT030 26/22 Q1012
LICR 211100Z 2112/2212 34008KT 9999 SCT030 TEMPO 2112/2118 TSRA BECMG 2116/2118 VRB05KT

RUNWAY INFORMATION

Runway Runway length Runway width Runway elevation Runway displaced threshold Runway heading
11 5574 148 38 0 113
29 5574 148 43 0 293
15 6549 148 84 840 153
33 6549 148 34 164 333

AIRPORT FREQUENCIES

Type Name Frequency
APP APP 120.275 MHZ
TWR TWR 118.25 MHZ

Flightplan

VFR

Air Sicilia Virtual Airways Fleets

AVAILABLE AIRCRAFTS for route at this time in Ciampino Airport

At this time no aircraft Air Sicilia Virtual Airways is available at Ciampino Airport
Only Charter flights.

264.653 NM

Distance in nautical miles.

€ 251,00

Ticket price for this flight.

0 h.

Estimated flight time.



07-08-2018
Aerosoft Professional Flight Planner PFPX

PFPX - Professional Flight Planner X - è un nuovo ed innovativo strumento di pianificazione del volo sviluppato da piloti e dispatcher del mondo reale. È un'aggiunta preziosa e realistica alla tua esperienza di simulaz ....


19-07-2018
Aerosoft Oslo X

L'Aeroporto di Oslo-Gardermoen (IATA: OSL, ICAO: ENGM) è il principale aeroporto norvegese e il 19° in Europa, è situato vicino alla cittadina di Ullensaker nella contea di Akershus e serve la capitale Oslo. Ha sostit ....


21-06-2018
Aerosoft Malpensa Professional P3Dv4

L'Aeroporto di Milano-Malpensa (IATA: MXP, ICAO: LIMC) è un aeroporto italiano situato nella provincia di Varese in Lombardia, ma considerato come il principale aeroporto di Milano.

È il secondo aeroporto ital ....


06-06-2018
1° Raduno Air Sicilia Virtual - parla il C.E.O.

Grande successo per il 1° Raduno di Compagnia dell'Air Sicilia Virtual, che ha visto i membri della Crew presenti il 4 giugno 2018 a Thiene ( VI ) , cimentarsi dal vivo con le reali ....


24-05-2018
Aerosoft Airport Rome XP

Tra le nostre recensioni non poteva mancare certo la nuova uscita Aerosoft per X-Plane, stiamo parlando di Airport Rome XP, finalmente un Add-on pay completo dell'Aeroporto di Roma Fiumicino per gli utilizzatori del simu ....